Wind_Speed
35 34 33 31 29 25 24 24 25 29 29 34 33 33 33 36 38 39 37 34 38 38 35 38 40 40 38 34 34 35 34 34 34 36 38 41 42 41 43 43 44 44 45 45
35 36 35 33 32 30 29 26 25 26 28 31 34 35 35 35 35 36 39 43 43 42 40 39 41 41 46 42 39 38 38 38 38 40 39 41 42 43 44 44 44 46 46 47
36 37 37 35 34 33 32 31 29 28 27 28 30 33 34 35 35 39 38 40 41 38 38 37 35 38 45 48 49 47 44 45 43 44 44 44 44 44 46 45 45 46 46 47
40 41 40 38 37 36 35 34 33 31 30 29 28 30 28 33 36 35 40 37 37 43 44 44 46 47 45 44 45 48 46 47 51 49 47 46 46 47 47 46 45 47 47 51
41 42 39 39 38 37 38 36 36 36 35 33 31 32 25 26 29 30 36 39 39 43 45 46 46 44 45 46 45 43 43 42 48 50 49 47 46 48 46 47 48 49 51 53
44 44 43 43 42 40 40 40 39 39 38 37 35 34 29 26 26 26 31 35 38 39 40 42 45 48 46 49 46 44 45 43 44 48 50 49 48 47 50 50 49 52 55 54
43 44 43 43 44 43 43 43 42 41 40 39 38 36 31 31 28 28 28 32 34 36 37 36 39 42 44 47 50 47 48 47 45 46 48 49 50 50 50 56 52 55 54 56
46 48 45 43 43 43 43 44 43 44 44 42 40 38 35 35 33 30 29 29 29 31 34 36 40 42 42 44 48 47 52 51 49 50 50 52 53 55 55 57 55 54 47 46
48 49 50 47 47 46 45 47 41 45 47 46 44 41 38 39 39 36 33 30 28 27 31 36 37 38 40 42 42 46 47 49 48 49 51 53 51 50 52 54 52 44 38 33
50 51 52 53 50 49 50 50 47 48 48 47 44 43 40 40 38 37 35 34 34 32 30 31 35 39 41 42 44 46 47 46 47 48 48 44 44 48 51 44 42 33 33 33
53 55 55 55 52 51 51 50 49 49 49 48 49 46 42 40 38 38 36 36 35 33 33 33 33 37 39 42 44 46 46 44 45 44 43 40 44 44 42 35 31 35 32 29
56 57 57 55 57 54 51 50 52 54 53 52 51 49 45 43 42 41 36 36 36 36 35 34 34 34 37 39 41 43 43 43 42 41 40 40 35 33 32 33 29 26 25 25
59 61 59 60 62 58 57 55 56 54 55 56 55 49 50 44 41 37 32 34 35 36 36 34 32 33 34 37 39 41 41 39 35 32 30 30 30 31 28 24 25 26 27 29
51 60 66 65 61 61 62 60 57 57 58 54 55 47 49 46 41 36 38 40 41 39 38 38 36 36 37 37 37 37 36 35 33 29 30 32 31 28 26 27 29 29 32 34
50 49 49 60 65 63 66 68 64 65 61 62 51 53 47 46 46 43 41 40 42 41 39 38 41 42 41 40 38 36 36 36 36 37 36 36 31 29 30 32 32 35 34 35
56 56 50 51 53 64 68 64 70 69 62 64 62 63 49 51 55 47 43 37 43 42 41 41 43 44 44 40 39 39 39 38 38 39 39 34 31 32 35 35 36 35 36 39
64 64 62 58 48 49 63 71 67 66 68 64 64 58 54 58 56 52 47 43 41 42 42 42 42 41 39 41 39 38 38 39 37 35 34 34 35 36 37 36 36 38 40 41
71 70 70 68 62 62 54 51 60 69 66 65 66 60 56 57 55 55 54 50 43 48 45 42 38 38 36 36 38 38 36 35 36 37 35 36 37 39 36 37 39 41 42 42
72 69 70 70 74 73 67 51 48 54 62 67 70 61 55 59 60 64 53 50 45 45 49 49 47 41 36 34 35 38 38 37 38 39 41 41 39 37 38 41 43 44 44 43
58 67 63 68 73 76 72 55 52 51 62 48 48 52 58 63 70 62 53 52 50 48 51 51 47 45 42 40 37 35 37 39 41 43 45 41 38 40 43 45 46 47 43 43
36 44 58 67 79 85 77 62 65 76 59 43 43 44 44 54 57 62 65 62 56 55 53 54 52 50 49 49 44 39 38 37 40 40 40 40 43 46 47 48 50 43 42 45
40 42 41 45 54 67 74 78 83 78 70 56 61 57 50 43 44 40 54 65 68 60 54 55 55 54 53 52 48 45 44 43 43 44 45 44 48 52 54 48 45 41 43 47
46 43 44 45 43 41 43 58 67 75 79 72 69 64 59 54 48 44 45 49 59 64 58 54 53 56 54 55 54 51 49 49 49 49 48 49 52 46 45 47 41 40 45 48
46 46 48 48 39 37 38 49 55 54 63 80 79 74 66 58 54 52 46 46 48 46 44 47 50 53 53 55 52 52 51 49 52 52 49 53 52 46 47 41 38 42 46 50
47 49 47 48 41 42 38 45 57 62 72 74 79 76 76 72 61 59 55 50 47 47 42 40 40 44 49 54 56 54 57 53 56 58 56 52 53 49 39 38 41 45 48 50
42 41 46 47 46 50 45 45 52 66 65 60 60 66 74 72 75 63 60 54 49 43 40 39 38 37 37 40 44 53 53 56 50 45 48 53 49 37 38 41 44 47 48 49
Wind_Direction
219 222 223 225 229 233 235 238 242 244 243 242 241 238 236 235 236 240 243 245 242 240 250 252 253 255 255 255 260 262 262 263 264 264 266 268 271 274 277 280 284 286 291 294
220 224 226 227 229 230 235 236 241 247 250 246 244 243 245 241 242 243 244 245 248 256 260 255 254 256 258 259 258 260 264 266 267 269 268 269 272 274 276 279 282 286 290 293
222 225 228 231 232 233 235 237 240 243 250 251 249 246 249 249 243 246 244 249 251 251 251 254 259 258 259 262 262 261 263 266 266 268 270 271 272 275 276 279 281 284 288 292
225 227 231 233 235 236 237 239 241 243 244 249 256 252 252 256 257 255 256 252 252 252 256 257 259 263 267 267 268 262 261 268 269 267 267 269 273 274 275 277 281 282 285 290
228 230 232 234 238 239 242 242 243 244 246 247 252 260 248 260 263 263 258 258 254 253 256 260 260 261 264 264 265 266 264 265 267 266 266 270 272 272 273 275 280 283 287 290
228 228 229 234 237 240 242 244 245 246 247 248 250 255 256 257 260 259 259 259 259 261 263 264 261 263 266 265 265 267 271 270 268 266 266 270 271 271 276 279 279 283 288 290
232 232 234 236 237 239 241 244 248 249 250 250 250 251 257 263 262 263 260 262 261 261 263 265 264 266 267 266 265 269 274 272 270 269 268 269 271 273 272 275 275 283 285 289
234 237 235 240 242 243 244 244 246 249 249 247 249 250 252 255 259 260 262 263 264 262 263 263 262 264 270 269 268 271 269 270 275 274 270 268 269 271 278 279 285 288 291 295
240 239 240 235 240 241 241 244 250 252 253 252 250 251 254 257 260 263 265 266 268 268 267 264 264 266 267 269 270 270 273 275 274 273 271 272 279 282 283 285 286 288 291 288
240 243 242 240 237 241 244 243 246 250 253 255 254 253 255 258 263 266 268 267 267 267 269 269 268 267 268 268 267 269 274 278 278 276 275 276 279 283 280 285 291 287 287 287
241 245 245 244 242 242 246 247 248 250 252 255 254 249 253 256 260 265 267 266 267 266 267 268 267 265 265 267 268 268 269 272 275 273 271 272 274 275 280 281 282 280 275 284
245 246 246 247 249 246 247 248 251 249 249 250 252 247 253 254 256 262 271 270 267 266 265 264 266 267 268 267 267 267 268 263 263 267 268 264 269 269 274 276 276 278 283 289
247 249 249 248 248 247 246 247 249 252 252 250 252 249 251 255 260 265 266 268 267 267 268 267 268 268 268 270 270 270 269 269 268 265 262 266 271 271 268 273 279 284 285 287
255 253 250 249 250 253 253 251 252 253 254 250 253 247 251 257 260 262 264 265 265 266 269 271 271 269 268 266 266 268 271 273 273 265 270 270 270 268 270 274 280 283 285 287
258 264 265 256 249 251 255 255 253 254 253 253 251 251 251 255 258 255 255 261 263 266 268 267 267 267 265 266 267 266 266 267 267 266 269 269 266 267 268 277 278 283 283 287
261 260 262 264 257 252 250 251 255 255 255 257 252 251 249 256 259 259 259 257 260 263 265 264 265 266 266 264 262 262 262 263 265 266 265 264 262 266 271 277 281 280 283 290
261 263 262 257 259 254 250 250 252 257 256 255 255 254 257 257 261 264 261 256 257 262 264 266 268 269 270 267 263 261 262 264 263 261 262 265 270 271 275 276 278 281 287 289
261 263 264 261 251 249 253 256 255 253 254 257 257 249 251 257 258 257 258 257 254 259 263 263 261 270 271 271 268 263 259 258 259 262 262 269 270 271 273 275 280 284 287 287
256 258 261 261 260 257 250 252 263 263 256 254 258 255 253 258 259 253 255 258 256 253 257 258 264 268 272 267 264 263 262 259 260 265 267 269 268 270 274 276 281 286 284 287
256 255 256 259 260 260 252 251 254 258 260 257 264 261 258 257 257 254 257 258 252 250 253 255 257 258 259 263 264 260 260 261 262 263 266 265 269 274 277 278 281 286 283 287
262 260 259 261 260 261 256 245 248 255 256 257 259 251 251 256 263 253 255 256 254 253 251 252 253 256 255 257 259 263 260 259 260 262 265 268 272 274 276 277 281 280 283 289
264 265 270 273 272 269 261 255 256 257 250 244 250 251 252 254 258 260 255 253 255 254 253 252 251 254 254 258 259 260 261 261 261 265 267 268 272 275 280 279 278 278 286 293
264 274 274 274 281 287 273 258 256 257 253 247 245 250 252 253 254 248 247 250 251 255 259 254 249 247 252 258 258 258 257 259 261 262 264 272 275 277 272 270 272 284 291 295
265 267 271 276 282 288 276 253 250 238 246 249 248 244 246 250 251 251 244 241 242 246 249 247 250 250 250 249 253 256 257 259 261 263 266 271 277 271 263 269 282 287 291 294
264 266 275 277 280 284 275 268 249 246 239 243 247 244 246 249 248 251 251 251 249 243 245 250 246 244 246 248 250 255 253 252 253 257 260 266 274 261 272 280 284 287 291 293
272 271 278 283 283 283 276 262 255 241 237 236 242 241 242 247 246 246 247 250 249 244 240 244 246 251 253 252 254 255 254 258 259 257 263 264 261 273 275 280 285 288 291 293
Height
5735 5741 5744 5748 5751 5756 5759 5761 5765 5768 5771 5773 5776 5779 5783 5786 5789 5791 5794 5798 5799 5800 5803 5806 5808 5810 5810 5812 5814 5815 5816 5816 5816 5816 5817 5816 5817 5815 5815 5813 5811 5809 5808 5806
5733 5735 5740 5745 5748 5751 5753 5756 5760 5763 5766 5768 5770 5775 5777 5780 5784 5786 5789 5791 5793 5795 5796 5799 5800 5802 5805 5805 5806 5807 5808 5808 5808 5809 5810 5808 5809 5808 5807 5805 5804 5802 5801 5798
5726 5731 5735 5739 5743 5746 5748 5751 5754 5758 5761 5764 5766 5770 5773 5775 5780 5779 5782 5784 5786 5789 5790 5793 5794 5795 5797 5798 5798 5799 5800 5801 5801 5801 5801 5801 5800 5799 5799 5798 5796 5795 5792 5790
5721 5726 5729 5735 5738 5739 5742 5746 5749 5752 5756 5759 5761 5764 5769 5770 5772 5775 5774 5779 5783 5783 5784 5786 5786 5788 5788 5789 5790 5791 5791 5792 5793 5792 5792 5792 5792 5791 5791 5789 5788 5786 5784 5781
5717 5720 5725 5728 5730 5735 5735 5741 5743 5745 5748 5753 5757 5758 5766 5765 5766 5768 5767 5768 5772 5774 5774 5776 5777 5779 5779 5781 5782 5782 5783 5781 5783 5783 5783 5783 5783 5782 5782 5780 5779 5778 5776 5773
5708 5713 5719 5721 5724 5728 5730 5734 5736 5738 5739 5745 5749 5752 5758 5759 5760 5760 5760 5761 5762 5764 5766 5767 5769 5771 5771 5773 5774 5775 5775 5774 5774 5774 5773 5773 5773 5773 5772 5771 5770 5769 5767 5765
5702 5707 5712 5715 5717 5721 5725 5726 5729 5730 5732 5738 5740 5745 5751 5751 5752 5752 5753 5752 5754 5756 5757 5759 5760 5762 5762 5764 5765 5766 5766 5766 5765 5764 5764 5763 5763 5763 5762 5761 5760 5759 5757 5756
5694 5699 5705 5708 5711 5714 5716 5718 5722 5721 5724 5729 5733 5738 5743 5743 5744 5745 5745 5746 5746 5747 5749 5751 5752 5753 5753 5753 5754 5756 5757 5757 5756 5755 5754 5753 5753 5752 5752 5752 5752 5751 5748 5746
5686 5690 5693 5700 5702 5704 5708 5709 5716 5712 5715 5719 5725 5730 5734 5734 5735 5737 5738 5739 5739 5739 5740 5742 5743 5743 5743 5744 5745 5747 5748 5748 5746 5745 5744 5743 5744 5744 5744 5742 5742 5740 5739 5737
5680 5681 5682 5686 5692 5695 5696 5700 5703 5704 5708 5710 5716 5719 5724 5726 5727 5728 5730 5731 5732 5732 5732 5732 5733 5734 5735 5735 5736 5737 5737 5736 5736 5735 5735 5735 5735 5734 5734 5733 5732 5731 5731 5729
5671 5670 5673 5677 5684 5688 5688 5691 5695 5696 5699 5701 5703 5711 5716 5718 5719 5719 5720 5722 5722 5723 5724 5723 5723 5724 5725 5726 5727 5727 5726 5726 5726 5726 5726 5725 5726 5725 5726 5724 5724 5722 5722 5722
5659 5658 5660 5670 5670 5675 5679 5685 5683 5684 5690 5688 5691 5704 5706 5709 5710 5711 5711 5713 5714 5715 5715 5714 5714 5715 5716 5717 5717 5717 5717 5718 5717 5716 5716 5717 5716 5716 5717 5717 5715 5714 5713 5713
5647 5648 5653 5655 5658 5667 5670 5674 5672 5675 5674 5677 5682 5698 5698 5701 5702 5703 5703 5704 5705 5705 5705 5705 5706 5706 5707 5707 5707 5707 5707 5707 5708 5709 5708 5709 5709 5709 5709 5708 5708 5706 5706 5705
5631 5635 5638 5646 5661 5654 5653 5658 5660 5661 5658 5674 5671 5690 5689 5691 5693 5695 5695 5695 5695 5696 5697 5698 5698 5697 5697 5696 5696 5697 5698 5699 5700 5700 5700 5700 5700 5701 5700 5701 5700 5699 5698 5697
5620 5622 5625 5632 5639 5638 5640 5642 5646 5644 5653 5653 5675 5671 5679 5680 5680 5681 5684 5685 5685 5687 5689 5689 5688 5687 5687 5688 5688 5689 5690 5691 5692 5692 5693 5693 5693 5693 5693 5693 5692 5691 5690 5688
5609 5612 5615 5615 5623 5623 5623 5628 5625 5635 5648 5646 5654 5655 5676 5671 5661 5671 5676 5676 5676 5677 5678 5678 5677 5678 5678 5679 5680 5681 5682 5683 5683 5684 5684 5685 5685 5685 5685 5684 5684 5682 5681 5679
5597 5600 5603 5602 5611 5604 5597 5613 5623 5628 5625 5635 5636 5656 5660 5653 5655 5660 5665 5667 5668 5667 5668 5669 5669 5670 5670 5670 5671 5672 5672 5673 5674 5675 5675 5677 5677 5676 5676 5675 5675 5673 5671 5670
5584 5585 5584 5587 5592 5581 5594 5604 5605 5608 5615 5621 5623 5638 5642 5642 5645 5647 5647 5653 5658 5657 5658 5657 5658 5660 5660 5661 5661 5662 5663 5664 5665 5666 5667 5668 5667 5667 5667 5666 5665 5664 5662 5659
5571 5572 5568 5568 5570 5573 5578 5600 5599 5593 5598 5606 5605 5624 5633 5631 5625 5623 5640 5641 5645 5645 5643 5645 5648 5651 5652 5651 5651 5652 5653 5655 5656 5657 5657 5657 5657 5657 5657 5656 5655 5653 5651 5649
5553 5554 5553 5556 5548 5545 5570 5595 5588 5584 5564 5603 5602 5610 5611 5609 5595 5616 5627 5622 5625 5628 5629 5633 5636 5637 5639 5641 5642 5643 5644 5645 5646 5646 5646 5646 5647 5647 5646 5645 5644 5642 5640 5638
5539 5536 5534 5536 5529 5529 5558 5577 5573 5552 5570 5595 5588 5586 5585 5584 5585 5599 5597 5601 5608 5614 5618 5619 5621 5625 5625 5627 5631 5633 5634 5635 5635 5635 5636 5637 5636 5636 5635 5634 5633 5631 5629 5626
5527 5524 5526 5523 5518 5515 5550 5549 5537 5547 5558 5569 5560 5563 5568 5570 5572 5578 5581 5585 5587 5596 5603 5605 5607 5611 5612 5614 5618 5621 5623 5623 5624 5625 5625 5625 5626 5625 5623 5622 5621 5619 5617 5614
5514 5514 5510 5509 5510 5515 5514 5514 5512 5519 5528 5544 5544 5547 5552 5559 5561 5562 5567 5569 5572 5578 5584 5588 5591 5595 5599 5601 5604 5607 5609 5610 5611 5612 5613 5613 5612 5611 5611 5610 5609 5608 5605 5602
5501 5500 5498 5492 5509 5500 5498 5499 5498 5503 5505 5518 5527 5529 5533 5541 5548 5552 5554 5556 5559 5564 5569 5572 5575 5580 5585 5588 5591 5593 5595 5597 5598 5600 5601 5600 5599 5599 5599 5598 5597 5596 5593 5589
5488 5485 5485 5483 5489 5483 5488 5480 5485 5488 5490 5496 5503 5513 5517 5521 5532 5536 5541 5545 5547 5551 5555 5558 5562 5565 5569 5571 5574 5577 5579 5581 5583 5584 5585 5587 5588 5587 5586 5586 5586 5584 5580 5577
5476 5476 5470 5468 5470 5464 5470 5467 5462 5464 5470 5476 5479 5486 5495 5502 5513 5517 5524 5529 5534 5538 5541 5545 5549 5553 5556 5558 5561 5564 5565 5566 5569 5571 5573 5575 5575 5575 5576 5575 5573 5571 5568 5564